Dayton Wright, OH

5:07 AM EST on January 18, 2018 (GMT -0500)
Dayton-Wright Brothers

Weather History for KMGY - June, 2013

Change the Weather History Date:

Sunday, June 9, 2013

  Actual Average (KFFO) Record (KFFO)
Temperature  
Mean Temperature 72 °F -  
Max Temperature 80 °F 76 °F 95 °F (1999)
Min Temperature 64 °F 57 °F 49 °F (2016)
Cooling Degree Days 6    
Growing Degree Days 22 (Base 50)    
Moisture  
Dew Point 61 °F    
Average Humidity 71    
Maximum Humidity 87    
Minimum Humidity 52    
Precipitation  
Precipitation 0.00 in - - ()
Sea Level Pressure  
Sea Level Pressure 30.00 in    
Wind  
Wind Speed 8 mph (SSE)    
Max Wind Speed 13 mph    
Max Gust Speed 18 mph    
Visibility 10 miles    
Events      
Averages and records for this station are not official NWS values.
T = Trace of Precipitation, MM = Missing Value Source: NWS Daily Summary

Daily Weather History Graph

Daily Weather History Graph

Search for Another Location

Airport or City:

Trip Planner

Search our weather history database for the weather conditions in past years. The results will help you decide how hot, cold, wet, or windy it might be!

Date:

Astronomy

Jun. 09, 2013 Rise Set
Actual Time 6:09 AM EDT 9:03 PM EDT
Civil Twilight 5:36 AM EDT 9:35 PM EDT
Nautical Twilight 4:56 AM EDT 10:16 PM EDT
Astronomical Twilight 4:08 AM EDT 11:03 PM EDT
Moon 7:04 AM EDT (6/9) 9:50 PM EDT (6/9)
Length of Visible Light 15h 59m
Length of Day
14h 54m
New Moon, 1% of the Moon is Illuminated
Jun 9
New Moon
Jun 16
First Quarter
Jun 23
Full
Jun 30
Last Quarter
Jul 8
New

Hourly Weather History & Observations

Time (EDT) Temp. Dew Point Humidity Pressure Visibility Wind Dir Wind Speed Gust Speed Precip Events Conditions
12:53 AM 69.1 °F 59.0 °F 70% 30.04 in 10.0 mi East 8.1 mph - N/A   Overcast
1:53 AM 69.1 °F 59.0 °F 70% 30.04 in 10.0 mi ESE 8.1 mph - N/A   Overcast
2:53 AM 66.9 °F 59.0 °F 76% 30.03 in 10.0 mi ESE 4.6 mph - N/A   Clear
3:53 AM 66.0 °F 59.0 °F 78% 30.03 in 10.0 mi SSE 6.9 mph - N/A   Clear
4:53 AM 64.9 °F 59.0 °F 81% 30.03 in 10.0 mi SE 6.9 mph - N/A   Clear
5:53 AM 64.0 °F 59.0 °F 84% 30.05 in 10.0 mi South 5.8 mph - N/A   Clear
6:53 AM 64.0 °F 60.1 °F 87% 30.06 in 9.0 mi South 5.8 mph - N/A   Mostly Cloudy
7:53 AM 66.0 °F 61.0 °F 84% 30.06 in 8.0 mi South 5.8 mph - N/A   Overcast
8:53 AM 69.1 °F 62.1 °F 78% 30.06 in 9.0 mi SSE 6.9 mph - N/A   Overcast
9:53 AM 72.0 °F 63.0 °F 73% 30.05 in 9.0 mi South 3.5 mph - N/A   Mostly Cloudy
10:53 AM 75.0 °F 62.1 °F 64% 30.04 in 10.0 mi South 9.2 mph - N/A   Clear
11:53 AM 77.0 °F 60.1 °F 56% 30.05 in 10.0 mi South 8.1 mph 18.4 mph N/A   Mostly Cloudy
12:53 PM 78.1 °F 61.0 °F 56% 30.03 in 10.0 mi South 6.9 mph - N/A   Partly Cloudy
1:53 PM 79.0 °F 60.1 °F 52% 30.00 in 10.0 mi South 6.9 mph - N/A   Scattered Clouds
2:53 PM 79.0 °F 60.1 °F 52% 29.98 in 10.0 mi SSE 12.7 mph 17.3 mph N/A   Partly Cloudy
3:53 PM 77.0 °F 61.0 °F 58% 29.98 in 10.0 mi South 12.7 mph 17.3 mph N/A   Mostly Cloudy
4:53 PM 77.0 °F 61.0 °F 58% 29.96 in 10.0 mi SSE 10.4 mph - N/A   Mostly Cloudy
5:53 PM 75.9 °F 62.1 °F 62% 29.95 in 10.0 mi SSE 4.6 mph - N/A   Mostly Cloudy
6:53 PM 73.9 °F 63.0 °F 68% 29.94 in 10.0 mi SSE 9.2 mph - 0.00 in   Scattered Clouds
7:53 PM 73.0 °F 64.0 °F 73% 29.94 in 10.0 mi SE 10.4 mph - N/A   Partly Cloudy
8:53 PM 72.0 °F 63.0 °F 73% 29.93 in 10.0 mi SE 8.1 mph - N/A   Clear
9:53 PM 71.1 °F 64.0 °F 78% 29.92 in 10.0 mi SSE 8.1 mph - N/A   Partly Cloudy
10:53 PM 70.0 °F 64.0 °F 81% 29.92 in 10.0 mi SSE 8.1 mph - N/A   Partly Cloudy
11:53 PM 70.0 °F 64.0 °F 81% 29.90 in 10.0 mi SSE 10.4 mph - N/A   Partly Cloudy